Hourly Weather Otonec

Today, 23 July, Friday

Time Temperature Precipitation Wind Pressure Humidity
00:00 +14°C° 0 mm 3 mps 735 mmHg 69%
01:00 +14°C° 0 mm 3 mps 735 mmHg 74%
02:00 +14°C° 0 mm 4 mps 735 mmHg 81%
03:00 +13°C° 0 mm 3 mps 734 mmHg 82%
04:00 +13°C° 0 mm 3 mps 734 mmHg 83%
05:00 +13°C° 0 mm 3 mps 734 mmHg 84%
06:00 +14°C° 0 mm 4 mps 734 mmHg 77%
07:00 +15°C° 0 mm 4 mps 734 mmHg 71%
08:00 +18°C° 0 mm 4 mps 734 mmHg 64%
09:00 +18°C° 0.1 mm 4 mps 735 mmHg 62%
10:00 +19°C° 0.1 mm 4 mps 735 mmHg 60%
11:00 +19°C° 0.1 mm 4 mps 735 mmHg 57%
12:00 +20°C° 0.1 mm 4 mps 735 mmHg 55%
13:00 +20°C° 0.1 mm 4 mps 735 mmHg 54%
14:00 +20°C° 0.1 mm 4 mps 735 mmHg 52%
15:00 +20°C° 0 mm 4 mps 735 mmHg 54%
16:00 +19°C° 0 mm 4 mps 735 mmHg 55%
17:00 +19°C° 0 mm 3 mps 735 mmHg 57%
18:00 +17°C° 0 mm 3 mps 736 mmHg 64%
19:00 +16°C° 0 mm 2 mps 736 mmHg 71%
20:00 +14°C° 0 mm 1 mps 736 mmHg 78%
21:00 +14°C° 0 mm 1 mps 736 mmHg 77%
22:00 +14°C° 0 mm 1 mps 736 mmHg 76%
23:00 +14°C° 0 mm 1 mps 737 mmHg 75%

Tomorrow, 24 July, Saturday

Time Temperature Precipitation Wind Pressure Humidity
00:00 +14°C° 0 mm 1 mps 737 mmHg 74%
01:00 +13°C° 0 mm 1 mps 737 mmHg 73%
02:00 +13°C° 0 mm 1 mps 738 mmHg 72%
03:00 +13°C° 0 mm 1 mps 738 mmHg 72%
04:00 +13°C° 0 mm 1 mps 738 mmHg 72%
05:00 +12°C° 0 mm 1 mps 739 mmHg 72%
06:00 +14°C° 0 mm 1 mps 739 mmHg 66%
07:00 +15°C° 0 mm 1 mps 739 mmHg 59%
08:00 +16°C° 0 mm 1 mps 739 mmHg 53%
09:00 +19°C° 0 mm 1 mps 740 mmHg 48%
10:00 +20°C° 0 mm 1 mps 740 mmHg 43%
11:00 +21°C° 0 mm 2 mps 740 mmHg 37%
12:00 +21°C° 0 mm 2 mps 740 mmHg 38%
13:00 +21°C° 0 mm 2 mps 740 mmHg 39%
14:00 +21°C° 0 mm 3 mps 740 mmHg 40%
15:00 +20°C° 0 mm 2 mps 740 mmHg 44%
16:00 +20°C° 0 mm 2 mps 741 mmHg 48%
17:00 +20°C° 0 mm 1 mps 741 mmHg 52%
18:00 +19°C° 0 mm 1 mps 741 mmHg 56%
19:00 +18°C° 0 mm 1 mps 741 mmHg 61%
20:00 +15°C° 0 mm 0 mps 741 mmHg 65%
21:00 +14°C° 0 mm 0 mps 741 mmHg 68%
22:00 +13°C° 0 mm 0 mps 742 mmHg 71%
23:00 +12°C° 0 mm 1 mps 742 mmHg 73%

Day after tomorrow, 25 July, Sunday

Time Temperature Precipitation Wind Pressure Humidity
00:00 +11°C° 0 mm 0 mps 742 mmHg 74%
01:00 +11°C° 0 mm 0 mps 742 mmHg 74%
02:00 +10°C° 0 mm 0 mps 742 mmHg 74%
03:00 +12°C° 0 mm 1 mps 743 mmHg 74%
04:00 +12°C° 0 mm 1 mps 743 mmHg 73%
05:00 +12°C° 0 mm 1 mps 743 mmHg 72%
06:00 +15°C° 0 mm 1 mps 743 mmHg 64%
07:00 +18°C° 0 mm 1 mps 743 mmHg 55%
08:00 +21°C° 0 mm 1 mps 744 mmHg 47%
09:00 +22°C° 0 mm 1 mps 744 mmHg 43%
10:00 +24°C° 0 mm 1 mps 744 mmHg 39%
11:00 +25°C° 0 mm 1 mps 744 mmHg 35%
12:00 +26°C° 0 mm 1 mps 744 mmHg 35%
13:00 +26°C° 0 mm 1 mps 744 mmHg 35%
14:00 +26°C° 0 mm 1 mps 744 mmHg 35%
15:00 +25°C° 0 mm 1 mps 744 mmHg 40%
16:00 +25°C° 0 mm 1 mps 744 mmHg 46%
17:00 +24°C° 0 mm 1 mps 744 mmHg 51%
18:00 +22°C° 0 mm 1 mps 744 mmHg 56%
19:00 +21°C° 0 mm 1 mps 744 mmHg 60%
20:00 +20°C° 0 mm 1 mps 744 mmHg 65%
21:00 +19°C° 0 mm 1 mps 744 mmHg 65%
22:00 +19°C° 0 mm 1 mps 745 mmHg 65%
23:00 +18°C° 0 mm 1 mps 745 mmHg 65%

26 July, Monday

Time Temperature Precipitation Wind Pressure Humidity
00:00 +18°C° 0 mm 1 mps 745 mmHg 66%
01:00 +16°C° 0 mm 2 mps 745 mmHg 67%
02:00 +15°C° 0 mm 2 mps 745 mmHg 67%
03:00 +16°C° 0 mm 1 mps 745 mmHg 67%
04:00 +16°C° 0 mm 1 mps 745 mmHg 66%
05:00 +18°C° 0 mm 1 mps 745 mmHg 65%
06:00 +20°C° 0 mm 1 mps 745 mmHg 60%
07:00 +22°C° 0 mm 1 mps 746 mmHg 55%
08:00 +23°C° 0 mm 1 mps 746 mmHg 49%
09:00 +25°C° 0 mm 1 mps 746 mmHg 45%
10:00 +26°C° 0 mm 1 mps 746 mmHg 40%
11:00 +28°C° 0 mm 1 mps 746 mmHg 36%
12:00 +28°C° 0 mm 1 mps 746 mmHg 38%
13:00 +27°C° 0 mm 1 mps 746 mmHg 40%
14:00 +27°C° 0 mm 1 mps 745 mmHg 43%
15:00 +27°C° 0 mm 1 mps 745 mmHg 42%
16:00 +27°C° 0 mm 1 mps 745 mmHg 41%
17:00 +27°C° 0 mm 1 mps 745 mmHg 41%
18:00 +25°C° 0 mm 1 mps 745 mmHg 47%
19:00 +23°C° 0 mm 1 mps 745 mmHg 53%
20:00 +20°C° 0 mm 2 mps 745 mmHg 58%
21:00 +20°C° 0 mm 2 mps 745 mmHg 60%
22:00 +19°C° 0 mm 2 mps 745 mmHg 62%
23:00 +19°C° 0 mm 2 mps 745 mmHg 64%

27 July, Tuesday

Time Temperature Precipitation Wind Pressure Humidity
00:00 +19°C° 0 mm 2 mps 745 mmHg 68%
01:00 +18°C° 0 mm 2 mps 745 mmHg 73%
02:00 +18°C° 0 mm 2 mps 745 mmHg 78%
03:00 +18°C° 0 mm 2 mps 745 mmHg 79%
04:00 +19°C° 0 mm 1 mps 745 mmHg 80%
05:00 +19°C° 0 mm 1 mps 745 mmHg 82%
06:00 +20°C° 0 mm 2 mps 745 mmHg 74%
07:00 +23°C° 0 mm 2 mps 745 mmHg 67%
08:00 +24°C° 0 mm 2 mps 745 mmHg 59%
09:00 +26°C° 0 mm 2 mps 745 mmHg 52%
10:00 +27°C° 0 mm 3 mps 745 mmHg 46%
11:00 +28°C° 0 mm 3 mps 745 mmHg 39%
12:00 +28°C° 0 mm 3 mps 745 mmHg 39%
13:00 +28°C° 0 mm 3 mps 744 mmHg 39%
14:00 +28°C° 0 mm 3 mps 744 mmHg 39%
15:00 +28°C° 0 mm 3 mps 744 mmHg 41%
16:00 +27°C° 0 mm 2 mps 743 mmHg 44%
17:00 +27°C° 0 mm 2 mps 743 mmHg 47%
18:00 +25°C° 0 mm 2 mps 743 mmHg 52%
19:00 +24°C° 0 mm 2 mps 743 mmHg 58%
20:00 +21°C° 0 mm 2 mps 743 mmHg 64%
21:00 +20°C° 0 mm 2 mps 742 mmHg 66%
22:00 +19°C° 0 mm 2 mps 742 mmHg 68%
23:00 +18°C° 0 mm 2 mps 742 mmHg 70%

28 July, Wednesday

Time Temperature Precipitation Wind Pressure Humidity
00:00 +18°C° 0 mm 2 mps 742 mmHg 72%
01:00 +17°C° 0 mm 2 mps 742 mmHg 74%
02:00 +17°C° 0 mm 2 mps 741 mmHg 76%
03:00 +17°C° 0 mm 2 mps 741 mmHg 77%
04:00 +17°C° 0 mm 2 mps 741 mmHg 79%
05:00 +17°C° 0 mm 3 mps 741 mmHg 80%
06:00 +19°C° 0 mm 3 mps 740 mmHg 74%
07:00 +21°C° 0 mm 4 mps 740 mmHg 69%
08:00 +23°C° 0 mm 4 mps 740 mmHg 63%
09:00 +22°C° 0.1 mm 4 mps 740 mmHg 66%
10:00 +22°C° 0.1 mm 4 mps 740 mmHg 69%
11:00 +21°C° 0.1 mm 5 mps 739 mmHg 72%
12:00 +21°C° 0 mm 4 mps 739 mmHg 74%
13:00 +21°C° 0 mm 4 mps 739 mmHg 75%
14:00 +20°C° 0 mm 4 mps 739 mmHg 77%
15:00 +20°C° 0.1 mm 4 mps 738 mmHg 79%
16:00 +19°C° 0.1 mm 3 mps 738 mmHg 82%
17:00 +19°C° 0.1 mm 2 mps 738 mmHg 85%
18:00 +18°C° 0 mm 2 mps 738 mmHg 87%
19:00 +18°C° 0 mm 2 mps 737 mmHg 90%
20:00 +19°C° 0 mm 1 mps 737 mmHg 93%
21:00 +18°C° 0 mm 1 mps 737 mmHg 94%
22:00 +18°C° 0 mm 1 mps 737 mmHg 94%
23:00 +18°C° 0 mm 1 mps 737 mmHg 95%
Show more